Location: Trebic
(49.2170°N, 15.8830°E)
Time: 07:45:15
(UTC+02:00)

Transit 4A - Pass Details

Date: 28 August 2019
Orbit: 865 x 980 km, 66.8° (Epoch: 14 September)

Event Time Altitude Azimuth Distance (km) Brightness Sun altitude
Rises 03:52:44 0° 316° (NW) 3,624 11.0 -19.6°
Reaches altitude 10° 03:55:50 10° 302° (WNW) 2,654 10.1 -19.2°
Enters shadow 03:59:11 21° 271° (W) 1,949 9.2 -18.8°
Maximum altitude 04:00:26 23° 254° (WSW) 1,873 - -18.7°
Drops below altitude 10° 04:04:56 10° 205° (SSW) 2,579 - -18.1°
Sets 04:07:55 0° 191° (S) 3,495 - -17.8°
